Location: Biharia
(46.4333°N, 22.8000°E)
Time: 21:38:48
(UTC+00:00)

Cosmos 1892 Rocket - Pass Details

Date: 16 October 2021
Orbit: 605 x 634 km, 82.5° (Epoch: 29 November)

Event Time Altitude Azimuth Distance (km) Brightness Sun altitude
Rises 17:14:52 0° 348° (NNW) 2,940 7.2 -17.0°
Reaches altitude 10° 17:17:07 10° 347° (NNW) 2,025 6.4 -17.4°
Maximum altitude 17:21:35 70° 264° (W) 673 3.9 -18.2°
Drops below altitude 10° 17:25:59 10° 181° (S) 1,994 6.1 -18.9°
Sets 17:28:12 0° 179° (S) 2,891 6.9 -19.3°
